WZZ7QC LROP-LKPR

Flight info

Callsign WZZ7QC
Flight time 1h 45m
Altitude 36000
Route SOKRU1K/08L SOKRU DCT OXDOC DCT BUDOP DCT PATAK DCT LALES DCT TUMKA DCT VLM
Aircraft A321/M-SDE3FGHIRWY/LB1

Departure

Time 2026-05-06 17:15
Airport Bucharest Henri Coandă International Airport (LROP)

Arrival

Time 2026-05-06 19:00
Airport Václav Havel Airport Prague (LKPR)
Time Latitude Longitude Altitude Speed Heading
2026-05-06 16:50 44.56860 26.08772 321 ft 0 kts 174°
2026-05-06 17:07 44.56878 26.08769 320 ft 4 kts 174°
2026-05-06 17:07 44.56904 26.08765 318 ft 2 kts 174°
2026-05-06 17:07 44.56925 26.08765 319 ft 4 kts 210°
2026-05-06 17:08 44.56937 26.08789 318 ft 4 kts 264°
2026-05-06 17:08 44.56939 26.08811 319 ft 0 kts 264°
2026-05-06 17:11 44.56939 26.08810 319 ft 1 kts 264°
2026-05-06 17:12 44.56936 26.08775 320 ft 8 kts 264°
2026-05-06 17:12 44.56927 26.08662 320 ft 13 kts 264°
2026-05-06 17:12 44.56947 26.08556 320 ft 12 kts 320°
2026-05-06 17:12 44.57031 26.08533 320 ft 13 kts 354°
2026-05-06 17:13 44.57124 26.08520 320 ft 15 kts 353°
2026-05-06 17:13 44.57268 26.08498 321 ft 24 kts 354°
2026-05-06 17:13 44.57424 26.08476 321 ft 19 kts 352°
2026-05-06 17:13 44.57496 26.08465 321 ft 6 kts 354°
2026-05-06 17:14 44.57544 26.08459 321 ft 8 kts 355°
2026-05-06 17:14 44.57621 26.08450 323 ft 14 kts 355°
2026-05-06 17:14 44.57668 26.08478 323 ft 10 kts 82°
2026-05-06 17:14 44.57689 26.08734 321 ft 59 kts 84°
2026-05-06 17:15 44.57756 26.09644 319 ft 125 kts 84°
2026-05-06 17:15 44.57868 26.11111 341 ft 173 kts 84°
2026-05-06 17:15 44.57994 26.12793 1001 ft 173 kts 85°
2026-05-06 17:15 44.58118 26.14483 1682 ft 176 kts 85°
2026-05-06 17:16 44.58245 26.16199 2284 ft 182 kts 85°
2026-05-06 17:16 44.58373 26.18071 2523 ft 203 kts 86°
2026-05-06 17:16 44.58589 26.20121 2765 ft 224 kts 70°
2026-05-06 17:16 44.59626 26.21850 2912 ft 248 kts 28°
2026-05-06 17:17 44.61347 26.22368 3287 ft 263 kts 356°
2026-05-06 17:17 44.63127 26.21774 4000 ft 265 kts 332°
2026-05-06 17:17 44.64634 26.20299 4822 ft 265 kts 321°
2026-05-06 17:17 44.66068 26.18647 5611 ft 268 kts 321°
2026-05-06 17:18 44.67503 26.16960 6368 ft 270 kts 321°
2026-05-06 17:18 44.68950 26.15249 7101 ft 273 kts 321°
2026-05-06 17:18 44.70403 26.13529 7880 ft 274 kts 321°
2026-05-06 17:18 44.71862 26.11797 8636 ft 275 kts 321°
2026-05-06 17:19 44.73313 26.10079 9399 ft 277 kts 322°
2026-05-06 17:19 44.74790 26.08331 10136 ft 279 kts 322°
2026-05-06 17:19 44.76324 26.06520 10414 ft 299 kts 322°
2026-05-06 17:19 44.77978 26.04568 10567 ft 321 kts 322°
2026-05-06 17:20 44.79717 26.02509 11031 ft 330 kts 322°
2026-05-06 17:20 44.81489 26.00408 11630 ft 335 kts 322°
2026-05-06 17:20 44.83285 25.98278 12265 ft 339 kts 322°
2026-05-06 17:20 44.85037 25.96014 12885 ft 346 kts 314°
2026-05-06 17:21 44.86460 25.93241 13489 ft 353 kts 301°
2026-05-06 17:21 44.87445 25.90035 14059 ft 361 kts 289°
2026-05-06 17:21 44.88156 25.86625 14641 ft 364 kts 288°
2026-05-06 17:21 44.88874 25.83187 15233 ft 367 kts 288°
2026-05-06 17:22 44.89601 25.79724 15825 ft 370 kts 288°
2026-05-06 17:22 44.90338 25.76220 16415 ft 373 kts 288°
2026-05-06 17:22 44.91079 25.72697 17014 ft 376 kts 288°
2026-05-06 17:22 44.91824 25.69144 17601 ft 379 kts 288°
2026-05-06 17:23 44.92572 25.65560 18184 ft 383 kts 288°
2026-05-06 17:23 44.93322 25.61951 18701 ft 385 kts 288°
2026-05-06 17:23 44.94080 25.58298 19222 ft 388 kts 288°
2026-05-06 17:23 44.94840 25.54634 19738 ft 391 kts 288°
2026-05-06 17:24 44.95604 25.50940 20279 ft 393 kts 288°
2026-05-06 17:24 44.96372 25.47224 20797 ft 395 kts 288°
2026-05-06 17:24 44.97141 25.43490 21319 ft 398 kts 288°
2026-05-06 17:24 44.97916 25.39717 21837 ft 401 kts 288°
2026-05-06 17:25 44.98694 25.35929 22354 ft 403 kts 288°
2026-05-06 17:25 44.99488 25.32125 22860 ft 405 kts 289°
2026-05-06 17:25 45.00374 25.28346 23346 ft 407 kts 291°
2026-05-06 17:25 45.01345 25.24581 23780 ft 409 kts 292°
2026-05-06 17:26 45.02365 25.20826 24189 ft 410 kts 295°
2026-05-06 17:26 45.03682 25.17260 24584 ft 409 kts 304°
2026-05-06 17:26 45.05307 25.13956 24993 ft 410 kts 307°
2026-05-06 17:26 45.06929 25.10627 25404 ft 411 kts 306°
2026-05-06 17:27 45.08531 25.07269 25809 ft 413 kts 306°
2026-05-06 17:27 45.10128 25.03890 26212 ft 414 kts 305°
2026-05-06 17:27 45.11728 25.00493 26601 ft 416 kts 305°
2026-05-06 17:27 45.13335 24.97086 26977 ft 417 kts 306°
2026-05-06 17:28 45.14951 24.93670 27359 ft 418 kts 306°
2026-05-06 17:28 45.16580 24.90237 27732 ft 420 kts 306°
2026-05-06 17:28 45.18214 24.86797 27976 ft 421 kts 306°
2026-05-06 17:29 45.21478 24.79912 28023 ft 420 kts 306°
2026-05-06 17:29 45.24726 24.73025 28027 ft 420 kts 306°
2026-05-06 17:29 45.26358 24.69562 28357 ft 422 kts 306°
2026-05-06 17:30 45.27972 24.66132 28707 ft 424 kts 305°
2026-05-06 17:30 45.29617 24.62629 29060 ft 426 kts 305°
2026-05-06 17:30 45.31264 24.59117 29395 ft 427 kts 305°
2026-05-06 17:30 45.32913 24.55597 29726 ft 429 kts 305°
2026-05-06 17:31 45.34567 24.52063 30059 ft 431 kts 305°
2026-05-06 17:31 45.36234 24.48497 30354 ft 432 kts 305°
2026-05-06 17:31 45.37900 24.44938 30644 ft 434 kts 305°
2026-05-06 17:31 45.39576 24.41356 30941 ft 435 kts 305°
2026-05-06 17:32 45.41248 24.37774 31333 ft 433 kts 305°
2026-05-06 17:32 45.42907 24.34207 31741 ft 432 kts 305°
2026-05-06 17:32 45.44563 24.30647 32127 ft 430 kts 305°
2026-05-06 17:32 45.46211 24.27097 32529 ft 429 kts 305°
2026-05-06 17:33 45.47856 24.23541 32911 ft 428 kts 304°
2026-05-06 17:33 45.49487 24.20013 33320 ft 426 kts 305°
2026-05-06 17:33 45.51119 24.16486 33677 ft 425 kts 305°
2026-05-06 17:33 45.52746 24.12963 34049 ft 423 kts 304°
2026-05-06 17:34 45.54343 24.09500 34389 ft 422 kts 304°
2026-05-06 17:34 45.55961 24.05995 34687 ft 421 kts 304°
2026-05-06 17:34 45.57572 24.02501 34971 ft 421 kts 304°
2026-05-06 17:34 45.59182 23.99004 35265 ft 420 kts 304°
2026-05-06 17:35 45.60771 23.95547 35535 ft 420 kts 304°
2026-05-06 17:35 45.62374 23.92056 35802 ft 420 kts 304°
2026-05-06 17:35 45.63977 23.88556 35943 ft 420 kts 304°
2026-05-06 17:36 45.68742 23.78092 35976 ft 417 kts 304°
2026-05-06 17:36 45.71894 23.71155 35980 ft 417 kts 304°
2026-05-06 17:37 45.75059 23.64184 35986 ft 417 kts 304°
2026-05-06 17:37 45.78219 23.57221 35989 ft 417 kts 303°
2026-05-06 17:38 45.81371 23.50250 35989 ft 417 kts 303°
2026-05-06 17:38 45.84522 23.43261 35986 ft 417 kts 303°
2026-05-06 17:39 45.87652 23.36306 35989 ft 417 kts 303°
2026-05-06 17:39 45.90795 23.29305 35981 ft 417 kts 303°
2026-05-06 17:40 45.93933 23.22291 35985 ft 417 kts 303°
2026-05-06 17:40 45.96541 23.16451 35987 ft 417 kts 303°
2026-05-06 17:41 45.99988 23.08716 35987 ft 417 kts 302°
2026-05-06 17:41 46.03111 23.01690 35988 ft 417 kts 302°
2026-05-06 17:42 46.05719 22.95803 35989 ft 417 kts 302°
2026-05-06 17:42 46.08832 22.88762 35988 ft 417 kts 302°
2026-05-06 17:43 46.11941 22.81718 35985 ft 417 kts 302°
2026-05-06 17:43 46.15049 22.74667 35986 ft 416 kts 302°
2026-05-06 17:44 46.18144 22.67607 35985 ft 416 kts 302°
2026-05-06 17:44 46.21242 22.60537 35988 ft 417 kts 302°
2026-05-06 17:45 46.24333 22.53451 35986 ft 417 kts 301°
2026-05-06 17:45 46.27412 22.46364 35978 ft 417 kts 301°
2026-05-06 17:46 46.30497 22.39271 35975 ft 417 kts 301°
2026-05-06 17:46 46.33578 22.32170 35977 ft 417 kts 301°
2026-05-06 17:47 46.36647 22.25059 35976 ft 417 kts 301°
2026-05-06 17:47 46.39696 22.17982 35973 ft 417 kts 301°
2026-05-06 17:48 46.42782 22.10809 35969 ft 417 kts 301°
2026-05-06 17:48 46.45826 22.03719 35960 ft 416 kts 300°
2026-05-06 17:49 46.48882 21.96578 35961 ft 416 kts 300°
2026-05-06 17:49 46.51935 21.89433 35960 ft 417 kts 300°
2026-05-06 17:50 46.54986 21.82276 35957 ft 417 kts 300°
2026-05-06 17:50 46.58030 21.75105 35951 ft 417 kts 300°
2026-05-06 17:51 46.61065 21.67926 35948 ft 417 kts 300°
2026-05-06 17:51 46.64100 21.60733 35952 ft 417 kts 300°
2026-05-06 17:52 46.67129 21.53531 35947 ft 417 kts 300°
2026-05-06 17:52 46.70546 21.46707 35948 ft 419 kts 309°
2026-05-06 17:53 46.74430 21.40353 35946 ft 420 kts 309°
2026-05-06 17:53 46.78313 21.33996 35941 ft 420 kts 309°
2026-05-06 17:54 46.82187 21.27609 35937 ft 420 kts 309°
2026-05-06 17:54 46.86048 21.21207 35938 ft 420 kts 309°
2026-05-06 17:55 46.89918 21.14796 35939 ft 420 kts 308°
2026-05-06 17:55 46.93786 21.08387 35936 ft 420 kts 308°
2026-05-06 17:56 46.97646 21.01966 35931 ft 420 kts 308°
2026-05-06 17:56 47.01496 20.95528 35923 ft 420 kts 308°
2026-05-06 17:57 47.05341 20.89079 35926 ft 419 kts 308°
2026-05-06 17:57 47.09185 20.82651 35928 ft 419 kts 308°
2026-05-06 17:58 47.13025 20.76221 35924 ft 419 kts 308°
2026-05-06 17:58 47.16827 20.69814 35918 ft 419 kts 307°
2026-05-06 17:59 47.20650 20.63353 35912 ft 419 kts 307°
2026-05-06 17:59 47.24479 20.56874 35911 ft 419 kts 307°
2026-05-06 18:00 47.28284 20.50405 35909 ft 419 kts 307°
2026-05-06 18:00 47.32107 20.43914 35909 ft 420 kts 307°
2026-05-06 18:01 47.35936 20.37393 35907 ft 420 kts 307°
2026-05-06 18:01 47.39106 20.31971 35903 ft 420 kts 307°
2026-05-06 18:02 47.42922 20.25438 35908 ft 420 kts 307°
2026-05-06 18:02 47.46738 20.18891 35904 ft 420 kts 307°
2026-05-06 18:03 47.50548 20.12334 35903 ft 420 kts 307°
2026-05-06 18:03 47.53982 20.06412 35905 ft 421 kts 307°
2026-05-06 18:04 47.55269 20.04185 35906 ft 421 kts 306°
2026-05-06 18:04 47.57544 20.00256 35910 ft 421 kts 307°
2026-05-06 18:05 47.61063 19.94159 35905 ft 421 kts 306°
2026-05-06 18:05 47.64864 19.87540 35906 ft 421 kts 306°
2026-05-06 18:06 47.68668 19.80905 35906 ft 422 kts 306°
2026-05-06 18:06 47.72178 19.74793 35905 ft 422 kts 306°
2026-05-06 18:07 47.75981 19.68153 35903 ft 422 kts 306°
2026-05-06 18:07 47.79779 19.61500 35904 ft 422 kts 306°
2026-05-06 18:08 47.83579 19.54824 35903 ft 422 kts 306°
2026-05-06 18:08 47.87372 19.48141 35902 ft 423 kts 306°
2026-05-06 18:09 47.91140 19.41483 35898 ft 423 kts 306°
2026-05-06 18:09 47.94934 19.34774 35897 ft 423 kts 306°
2026-05-06 18:10 47.98700 19.28099 35894 ft 423 kts 306°
2026-05-06 18:10 48.02487 19.21349 35894 ft 424 kts 305°
2026-05-06 18:11 48.03127 19.20209 35891 ft 424 kts 306°
2026-05-06 18:11 48.06703 19.13727 35890 ft 424 kts 305°
2026-05-06 18:12 48.10527 19.06994 35895 ft 425 kts 306°
2026-05-06 18:12 48.14406 19.00295 35895 ft 425 kts 306°
2026-05-06 18:13 48.18253 18.93603 35886 ft 426 kts 306°
2026-05-06 18:13 48.22090 18.86846 35893 ft 426 kts 306°
2026-05-06 18:14 48.25926 18.80072 35878 ft 426 kts 306°
2026-05-06 18:14 48.29770 18.73290 35879 ft 426 kts 306°
2026-05-06 18:15 48.32987 18.67596 35874 ft 426 kts 306°
2026-05-06 18:15 48.36617 18.61153 35875 ft 427 kts 306°
2026-05-06 18:16 48.40451 18.54333 35873 ft 427 kts 305°
2026-05-06 18:16 48.44276 18.47501 35870 ft 427 kts 305°
2026-05-06 18:17 48.48101 18.40662 35867 ft 427 kts 305°
2026-05-06 18:17 48.51929 18.33816 35859 ft 427 kts 305°
2026-05-06 18:18 48.53412 18.31157 35857 ft 426 kts 305°
2026-05-06 18:18 48.57227 18.24253 35856 ft 427 kts 305°
2026-05-06 18:19 48.61028 18.17407 35847 ft 427 kts 305°
2026-05-06 18:19 48.64839 18.10525 35843 ft 426 kts 305°
2026-05-06 18:20 48.68636 18.03639 35840 ft 426 kts 304°
2026-05-06 18:20 48.72435 17.96741 35837 ft 426 kts 304°
2026-05-06 18:21 48.76218 17.89857 35837 ft 425 kts 304°
2026-05-06 18:21 48.79990 17.82943 35834 ft 425 kts 304°
2026-05-06 18:22 48.83756 17.76031 35827 ft 425 kts 304°
2026-05-06 18:22 48.87188 17.68828 35819 ft 416 kts 292°
2026-05-06 18:23 48.89700 17.60939 35814 ft 415 kts 291°
2026-05-06 18:23 48.92214 17.53038 35806 ft 415 kts 291°
2026-05-06 18:24 48.94721 17.45131 35799 ft 415 kts 290°
2026-05-06 18:24 48.96794 17.38553 35799 ft 415 kts 290°
2026-05-06 18:25 48.99283 17.30631 35796 ft 415 kts 290°
2026-05-06 18:25 49.01769 17.22695 35794 ft 415 kts 290°
2026-05-06 18:26 49.04252 17.14760 35784 ft 415 kts 290°
2026-05-06 18:26 49.06732 17.06816 35773 ft 415 kts 290°
2026-05-06 18:27 49.09196 16.98860 35758 ft 415 kts 290°
2026-05-06 18:27 49.11653 16.90903 35711 ft 415 kts 290°
2026-05-06 18:28 49.12879 16.86933 35301 ft 413 kts 290°
2026-05-06 18:28 49.14099 16.82991 34917 ft 408 kts 290°
2026-05-06 18:28 49.15304 16.79097 34527 ft 404 kts 289°
2026-05-06 18:28 49.16498 16.75228 34144 ft 400 kts 289°
2026-05-06 18:29 49.17675 16.71398 33837 ft 397 kts 289°
2026-05-06 18:29 49.18841 16.67591 33497 ft 394 kts 289°
2026-05-06 18:29 49.19997 16.63805 33149 ft 392 kts 288°
2026-05-06 18:29 49.21145 16.60038 32801 ft 390 kts 288°
2026-05-06 18:30 49.22290 16.56281 32453 ft 389 kts 288°
2026-05-06 18:30 49.23430 16.52535 32112 ft 388 kts 288°
2026-05-06 18:30 49.24564 16.48798 31778 ft 387 kts 288°
2026-05-06 18:30 49.25690 16.45078 31447 ft 386 kts 288°
2026-05-06 18:31 49.26816 16.41353 31117 ft 384 kts 288°
2026-05-06 18:31 49.27935 16.37647 30799 ft 383 kts 288°
2026-05-06 18:31 49.29052 16.33951 30494 ft 381 kts 288°
2026-05-06 18:31 49.30162 16.30270 30178 ft 380 kts 288°
2026-05-06 18:32 49.31269 16.26600 29876 ft 379 kts 288°
2026-05-06 18:32 49.32373 16.22929 29549 ft 378 kts 288°
2026-05-06 18:32 49.33470 16.19282 29218 ft 376 kts 288°
2026-05-06 18:32 49.34561 16.15638 28875 ft 375 kts 288°
2026-05-06 18:33 49.35647 16.12009 28545 ft 373 kts 288°
2026-05-06 18:33 49.36727 16.08399 28205 ft 372 kts 288°
2026-05-06 18:33 49.37804 16.04799 27895 ft 370 kts 288°
2026-05-06 18:33 49.38860 16.01254 27576 ft 369 kts 288°
2026-05-06 18:34 49.39937 15.97632 27260 ft 368 kts 288°
2026-05-06 18:34 49.40987 15.94109 26949 ft 367 kts 288°
2026-05-06 18:34 49.42110 15.90592 26634 ft 367 kts 290°
2026-05-06 18:34 49.43294 15.87111 26328 ft 367 kts 291°
2026-05-06 18:35 49.44500 15.83666 26025 ft 366 kts 291°
2026-05-06 18:35 49.45709 15.80231 25727 ft 365 kts 291°
2026-05-06 18:35 49.46911 15.76797 25430 ft 364 kts 291°
2026-05-06 18:35 49.48094 15.73371 25140 ft 363 kts 291°
2026-05-06 18:36 49.49264 15.69942 24847 ft 362 kts 291°
2026-05-06 18:36 49.50425 15.66516 24565 ft 361 kts 291°
2026-05-06 18:36 49.51580 15.63093 24281 ft 360 kts 290°
2026-05-06 18:36 49.52726 15.59684 23997 ft 359 kts 290°
2026-05-06 18:37 49.53869 15.56279 23724 ft 358 kts 290°
2026-05-06 18:37 49.55014 15.52867 23445 ft 357 kts 291°
2026-05-06 18:37 49.56154 15.49477 23149 ft 356 kts 291°
2026-05-06 18:37 49.57296 15.46092 22817 ft 355 kts 291°
2026-05-06 18:38 49.58428 15.42725 22497 ft 353 kts 291°
2026-05-06 18:38 49.59553 15.39370 22178 ft 351 kts 291°
2026-05-06 18:38 49.60670 15.36027 21851 ft 350 kts 291°
2026-05-06 18:38 49.61782 15.32696 21547 ft 348 kts 291°
2026-05-06 18:39 49.62888 15.29389 21237 ft 347 kts 292°
2026-05-06 18:39 49.64309 15.26341 20919 ft 355 kts 307°
2026-05-06 18:39 49.66002 15.23569 20614 ft 354 kts 307°
2026-05-06 18:40 49.69385 15.18074 20024 ft 351 kts 307°
2026-05-06 18:40 49.71060 15.15352 19722 ft 349 kts 307°
2026-05-06 18:40 49.72731 15.12631 19433 ft 348 kts 307°
2026-05-06 18:40 49.74375 15.09946 19152 ft 346 kts 307°
2026-05-06 18:41 49.76021 15.07252 18868 ft 344 kts 307°
2026-05-06 18:41 49.77660 15.04561 18580 ft 342 kts 307°
2026-05-06 18:41 49.79288 15.01887 18300 ft 340 kts 307°
2026-05-06 18:41 49.80911 14.99226 17991 ft 339 kts 307°
2026-05-06 18:42 49.82522 14.96578 17644 ft 337 kts 308°
2026-05-06 18:42 49.84124 14.93945 17299 ft 335 kts 308°
2026-05-06 18:42 49.85715 14.91324 16952 ft 333 kts 308°
2026-05-06 18:42 49.87303 14.88712 16608 ft 331 kts 308°
2026-05-06 18:43 49.88880 14.86119 16282 ft 330 kts 308°
2026-05-06 18:43 49.90447 14.83537 15955 ft 328 kts 308°
2026-05-06 18:43 49.92005 14.80963 15629 ft 326 kts 308°
2026-05-06 18:43 49.93551 14.78405 15301 ft 324 kts 308°
2026-05-06 18:44 49.95086 14.75859 14979 ft 323 kts 308°
2026-05-06 18:44 49.96615 14.73319 14664 ft 321 kts 308°
2026-05-06 18:44 49.98137 14.70790 14376 ft 319 kts 309°
2026-05-06 18:44 49.99635 14.68300 14113 ft 318 kts 309°
2026-05-06 18:45 50.00874 14.66246 13905 ft 317 kts 309°
2026-05-06 18:45 50.02240 14.63647 13651 ft 313 kts 303°
2026-05-06 18:45 50.03558 14.60943 13365 ft 312 kts 303°
2026-05-06 18:45 50.04864 14.58258 13074 ft 311 kts 303°
2026-05-06 18:46 50.06169 14.55583 12773 ft 309 kts 303°
2026-05-06 18:46 50.07466 14.52945 12499 ft 304 kts 303°
2026-05-06 18:46 50.08744 14.50350 12211 ft 299 kts 303°
2026-05-06 18:46 50.10000 14.47808 11929 ft 294 kts 303°
2026-05-06 18:47 50.11238 14.45305 11586 ft 287 kts 303°
2026-05-06 18:47 50.12433 14.42900 11259 ft 274 kts 303°
2026-05-06 18:47 50.13584 14.40599 10930 ft 264 kts 303°
2026-05-06 18:47 50.14706 14.38366 10647 ft 261 kts 303°
2026-05-06 18:48 50.15826 14.36139 10329 ft 261 kts 303°
2026-05-06 18:48 50.16944 14.33913 10020 ft 260 kts 303°
2026-05-06 18:48 50.18051 14.31706 9806 ft 255 kts 303°
2026-05-06 18:48 50.19132 14.29558 9779 ft 246 kts 303°
2026-05-06 18:49 50.20170 14.27511 9681 ft 237 kts 303°
2026-05-06 18:49 50.21188 14.25508 9407 ft 234 kts 303°
2026-05-06 18:49 50.22182 14.23545 9177 ft 228 kts 303°
2026-05-06 18:49 50.23162 14.21601 8858 ft 226 kts 303°
2026-05-06 18:50 50.24125 14.19682 8754 ft 225 kts 303°
2026-05-06 18:50 50.25086 14.17756 8428 ft 225 kts 303°
2026-05-06 18:50 50.26049 14.15813 8087 ft 225 kts 303°
2026-05-06 18:50 50.26998 14.13886 7800 ft 221 kts 303°
2026-05-06 18:51 50.27925 14.11992 7779 ft 224 kts 303°
2026-05-06 18:51 50.28882 14.10027 7774 ft 225 kts 303°
2026-05-06 18:51 50.29817 14.08101 7772 ft 225 kts 303°
2026-05-06 18:51 50.30765 14.06150 7770 ft 225 kts 303°
2026-05-06 18:52 50.31710 14.04196 7772 ft 225 kts 303°
2026-05-06 18:52 50.32652 14.02246 7564 ft 223 kts 303°
2026-05-06 18:52 50.33584 14.00306 7253 ft 222 kts 303°
2026-05-06 18:52 50.34497 13.98355 6945 ft 220 kts 297°
2026-05-06 18:53 50.34866 13.96126 6557 ft 212 kts 259°
2026-05-06 18:53 50.34313 13.94012 6164 ft 211 kts 229°
2026-05-06 18:53 50.33184 13.92660 5931 ft 204 kts 201°
2026-05-06 18:53 50.31785 13.92335 5555 ft 205 kts 173°
2026-05-06 18:54 50.30400 13.92918 5128 ft 210 kts 164°
2026-05-06 18:54 50.29014 13.93626 4916 ft 207 kts 163°
2026-05-06 18:54 50.27665 13.94333 4793 ft 204 kts 163°
2026-05-06 18:54 50.26323 13.95035 4656 ft 203 kts 163°
2026-05-06 18:55 50.25024 13.95912 4541 ft 205 kts 150°
2026-05-06 18:55 50.23922 13.97327 4409 ft 205 kts 134°
2026-05-06 18:55 50.23047 13.99029 4281 ft 198 kts 129°
2026-05-06 18:55 50.22224 14.00743 4150 ft 197 kts 128°
2026-05-06 18:56 50.21413 14.02441 4059 ft 191 kts 128°
2026-05-06 18:56 50.20629 14.04080 3994 ft 186 kts 128°
2026-05-06 18:56 50.19856 14.05695 3999 ft 185 kts 128°
2026-05-06 18:56 50.19086 14.07302 3855 ft 184 kts 128°
2026-05-06 18:57 50.18335 14.08869 3665 ft 177 kts 127°
2026-05-06 18:57 50.17605 14.10389 3424 ft 173 kts 127°
2026-05-06 18:57 50.16889 14.11881 3205 ft 170 kts 127°
2026-05-06 18:57 50.16190 14.13337 2975 ft 165 kts 126°
2026-05-06 18:58 50.15505 14.14762 2773 ft 163 kts 126°
2026-05-06 18:58 50.14828 14.16169 2558 ft 162 kts 125°
2026-05-06 18:58 50.14167 14.17543 2358 ft 154 kts 125°
2026-05-06 18:58 50.13535 14.18857 2133 ft 149 kts 124°
2026-05-06 18:59 50.12918 14.20139 1914 ft 147 kts 124°
2026-05-06 18:59 50.12309 14.21409 1691 ft 145 kts 124°
2026-05-06 18:59 50.11705 14.22657 1521 ft 144 kts 125°
2026-05-06 18:59 50.11104 14.23911 1320 ft 144 kts 124°
2026-05-06 19:00 50.10512 14.25134 1173 ft 131 kts 126°
2026-05-06 19:00 50.10133 14.25924 1191 ft 57 kts 127°
2026-05-06 19:00 50.09945 14.26313 1203 ft 34 kts 128°
2026-05-06 19:00 50.09871 14.26493 1211 ft 22 kts 104°
2026-05-06 19:01 50.09886 14.26736 1212 ft 0 kts 81°
2026-05-06 19:01 50.09886 14.26738 1212 ft 1 kts 81°
2026-05-06 19:02 50.09889 14.26764 1212 ft 3 kts 81°
2026-05-06 19:02 50.09892 14.26797 1211 ft 5 kts 81°
2026-05-06 19:02 50.09906 14.26943 1209 ft 23 kts 82°
2026-05-06 19:02 50.09934 14.27146 1206 ft 6 kts 28°
2026-05-06 19:03 50.09958 14.27108 1206 ft 5 kts 306°
2026-05-06 19:03 50.09987 14.27042 1205 ft 10 kts 306°
2026-05-06 19:03 50.10045 14.26922 1202 ft 15 kts 306°
2026-05-06 19:03 50.10105 14.26793 1199 ft 15 kts 306°
2026-05-06 19:04 50.10177 14.26641 1197 ft 20 kts 308°
2026-05-06 19:04 50.10261 14.26475 1194 ft 20 kts 308°
2026-05-06 19:04 50.10343 14.26301 1190 ft 20 kts 307°
2026-05-06 19:04 50.10425 14.26130 1187 ft 17 kts 306°
2026-05-06 19:05 50.10494 14.25988 1184 ft 17 kts 307°
2026-05-06 19:05 50.10560 14.25839 1183 ft 13 kts 303°
2026-05-06 19:05 50.10634 14.25821 1178 ft 14 kts 33°
2026-05-06 19:05 50.10720 14.25911 1173 ft 15 kts 34°
2026-05-06 19:06 50.10809 14.26004 1174 ft 16 kts 34°
2026-05-06 19:06 50.10868 14.26068 1174 ft 16 kts 35°
2026-05-06 19:06 50.10937 14.26143 1171 ft 7 kts 35°
2026-05-06 19:06 50.10936 14.26194 1175 ft 5 kts 124°
2026-05-06 19:07 50.10918 14.26236 1173 ft 4 kts 124°
2026-05-06 19:07 50.10913 14.26248 1173 ft 0 kts 124°